Time,TemperatureF,DewpointF,PressureIn,WindDirection,WindDirectionDegrees,WindSpeedMPH,WindSpeedGustMPH,Humidity,HourlyPrecipIn,Conditions,Clouds,dailyrainin,SoftwareType,DateUTC
2013-02-04 00:00:00,48.6,30.7,30.05,North,7,2.0,3.0,50,0.00,CL,CL,0.00,WeatherDisplay:10.37,2013-02-04 05:00:00,
2013-02-04 00:03:00,19.6,-2.5,30.02,North,11,0.0,0.0,37,0.00,CLR,CLR,0.00,WeatherDisplay:10.37,2013-02-04 05:03:00,
2013-02-04 00:18:00,19.4,-3.3,29.99,NNE,22,0.0,0.0,36,0.00,CLR,CLR,0.00,WeatherDisplay:10.37,2013-02-04 05:18:00,
2013-02-04 00:33:00,19.4,-3.3,29.96,NE,51,1.0,1.0,36,0.00,CLR,CLR,0.00,WeatherDisplay:10.37,2013-02-04 05:33:00,
2013-02-04 00:48:00,19.6,-3.1,29.96,East,90,2.0,2.0,36,0.00,CLR,CLR,0.00,WeatherDisplay:10.37,2013-02-04 05:48:00,
2013-02-04 01:00:00,47.8,32.9,30.02,North,6,2.0,2.0,56,0.00,CL,CL,0.00,WeatherDisplay:10.37,2013-02-04 06:00:00,
2013-02-04 01:03:00,19.6,-3.1,29.93,ESE,108,0.0,1.0,36,0.00,CLR,CLR,0.00,WeatherDisplay:10.37,2013-02-04 06:03:00,
2013-02-04 01:18:00,19.9,-2.2,29.96,SE,135,1.0,2.0,37,0.00,CLR,CLR,0.00,WeatherDisplay:10.37,2013-02-04 06:18:00,
2013-02-04 01:33:00,20.7,-1.5,29.96,East,90,0.0,2.0,37,0.00,CLR,CLR,0.00,WeatherDisplay:10.37,2013-02-04 06:33:00,
2013-02-04 01:48:00,21.2,-1.1,29.96,East,90,1.0,1.0,37,0.00,CLR,CLR,0.00,WeatherDisplay:10.37,2013-02-04 06:48:00,
2013-02-04 02:00:00,47.8,34.2,29.99,North,6,3.0,3.0,59,0.00,CL,CL,0.00,WeatherDisplay:10.37,2013-02-04 07:00:00,
2013-02-04 02:03:00,21.7,-1.2,29.96,East,90,0.0,1.0,36,0.00,CLR,CLR,0.00,WeatherDisplay:10.37,2013-02-04 07:03:00,
2013-02-04 02:18:00,22.3,-0.7,29.93,ESE,117,1.0,2.0,36,0.00,CLR,CLR,0.00,WeatherDisplay:10.37,2013-02-04 07:18:00,
2013-02-04 02:33:00,22.8,-0.2,29.93,SE,140,2.0,3.0,36,0.00,CLR,CLR,0.00,WeatherDisplay:10.37,2013-02-04 07:33:00,
2013-02-04 02:48:00,23.5,-0.2,29.93,SSE,166,3.0,4.0,35,0.00,CLR,CLR,0.00,WeatherDisplay:10.37,2013-02-04 07:48:00,
2013-02-04 03:00:00,48.0,38.7,30.02,North,8,3.0,7.0,70,0.00,CL,CL,0.00,WeatherDisplay:10.37,2013-02-04 08:00:00,
2013-02-04 03:03:00,24.1,-0.9,29.93,SSE,168,2.0,6.0,33,0.00,CLR,CLR,0.00,WeatherDisplay:10.37,2013-02-04 08:03:00,
2013-02-04 03:18:00,24.6,-0.4,29.93,South,173,3.0,5.0,33,0.00,CLR,CLR,0.00,WeatherDisplay:10.37,2013-02-04 08:18:00,
2013-02-04 03:33:00,25.3,0.2,29.93,SSE,161,3.0,6.0,33,0.00,CLR,CLR,0.00,WeatherDisplay:10.37,2013-02-04 08:33:00,
2013-02-04 03:48:00,26.2,1.0,29.91,SE,144,2.0,3.0,33,0.00,CLR,CLR,0.00,WeatherDisplay:10.37,2013-02-04 08:48:00,
2013-02-04 04:00:00,48.6,48.6,30.02,North,9,1.0,2.0,100,0.04,CL,CL,0.00,WeatherDisplay:10.37,2013-02-04 09:00:00,
2013-02-04 04:03:00,27.1,1.1,29.93,South,177,6.0,7.0,32,0.00,CLR,CLR,0.00,WeatherDisplay:10.37,2013-02-04 09:03:00,
2013-02-04 04:18:00,27.9,1.1,29.91,South,180,7.0,10.0,31,0.00,CLR,CLR,0.00,WeatherDisplay:10.37,2013-02-04 09:18:00,
2013-02-04 04:33:00,28.6,1.7,29.88,South,182,6.0,8.0,31,0.00,CLR,CLR,0.00,WeatherDisplay:10.37,2013-02-04 09:33:00,
2013-02-04 04:48:00,29.8,2.8,29.88,South,184,8.0,10.0,31,0.00,CLR,CLR,0.00,WeatherDisplay:10.37,2013-02-04 09:48:00,
2013-02-04 05:00:00,48.7,48.7,29.99,North,4,1.0,1.0,100,0.00,CL,CL,0.00,WeatherDisplay:10.37,2013-02-04 10:00:00,
2013-02-04 06:00:00,49.8,49.8,30.02,North,8,0.0,0.0,100,0.00,CL,CL,0.00,WeatherDisplay:10.37,2013-02-04 11:00:00,
2013-02-04 07:00:00,51.6,51.6,30.02,North,4,0.0,0.0,100,0.00,CL,CL,0.00,WeatherDisplay:10.37,2013-02-04 12:00:00,
2013-02-04 08:00:00,52.7,52.7,29.96,North,3,1.0,1.0,100,0.00,CL,CL,0.00,WeatherDisplay:10.37,2013-02-04 13:00:00,
2013-02-04 09:00:00,54.0,54.0,29.96,North,3,0.0,0.0,100,0.00,CL,CL,0.00,WeatherDisplay:10.37,2013-02-04 14:00:00,
2013-02-04 09:54:00,30.2,17.2,29.91,South,180,9.8,9.8,58,0.00,CLR,,0.00,WeatherDisplay:10.37,2013-02-04 14:54:00,
2013-02-04 09:55:00,30.7,16.5,29.91,SSE,158,6.9,7.8,55,0.00,CLR,,0.00,WeatherDisplay:10.37,2013-02-04 14:55:00,
2013-02-04 10:00:00,30.9,21.2,29.91,South,180,10.4,10.4,67,0.00,CLR,,0.00,WeatherDisplay:10.37,2013-02-04 15:00:00,
2013-02-04 10:05:00,31.5,22.8,29.91,South,180,9.2,9.2,70,0.00,OVC,,0.00,WeatherDisplay:10.37,2013-02-04 15:05:00,
2013-02-04 10:10:00,32.0,22.3,29.91,South,180,8.1,8.1,67,0.00,OVC,,0.00,WeatherDisplay:10.37,2013-02-04 15:10:00,
2013-02-04 10:15:00,32.5,22.8,29.91,South,180,7.6,7.6,67,0.00,OVC,,0.00,WeatherDisplay:10.37,2013-02-04 15:15:00,
2013-02-04 10:20:00,32.7,23.0,29.88,South,180,8.7,8.7,67,0.00,OVC,,0.00,WeatherDisplay:10.37,2013-02-04 15:20:00,
2013-02-04 10:25:00,33.1,23.3,29.88,SE,135,8.1,8.1,67,0.00,OVC,,0.00,WeatherDisplay:10.37,2013-02-04 15:25:00,
2013-02-04 10:30:00,33.3,23.5,29.88,SSE,158,11.5,11.5,67,0.00,OVC,,0.00,WeatherDisplay:10.37,2013-02-04 15:30:00,
2013-02-04 10:35:00,33.4,22.9,29.88,South,180,8.1,8.1,65,0.00,OVC,,0.00,WeatherDisplay:10.37,2013-02-04 15:35:00,
2013-02-04 10:40:00,33.6,23.1,29.88,South,180,12.7,12.7,65,0.00,OVC,,0.00,WeatherDisplay:10.37,2013-02-04 15:40:00,
2013-02-04 10:45:00,33.8,22.9,29.88,South,180,10.4,10.7,64,0.00,OVC,,0.00,WeatherDisplay:10.37,2013-02-04 15:45:00,
2013-02-04 10:50:00,34.3,23.4,29.88,South,180,10.4,10.4,64,0.00,OVC,,0.00,WeatherDisplay:10.37,2013-02-04 15:50:00,
2013-02-04 10:55:00,34.9,23.9,29.88,South,180,9.2,9.2,64,0.00,OVC,,0.00,WeatherDisplay:10.37,2013-02-04 15:55:00,
2013-02-04 11:00:00,35.4,24.4,29.88,South,180,15.0,15.0,64,0.00,OVC,,0.00,WeatherDisplay:10.37,2013-02-04 16:00:00,
2013-02-04 11:05:00,35.8,24.8,29.88,SSW,202,13.8,13.8,64,0.00,OVC,,0.00,WeatherDisplay:10.37,2013-02-04 16:05:00,
2013-02-04 11:10:00,36.1,25.1,29.88,South,180,12.7,12.7,64,0.00,OVC,,0.00,WeatherDisplay:10.37,2013-02-04 16:10:00,
2013-02-04 11:15:00,36.5,25.5,29.88,SSW,202,10.4,10.5,64,0.00,OVC,,0.00,WeatherDisplay:10.37,2013-02-04 16:15:00,
2013-02-04 11:20:00,37.2,26.2,29.88,South,180,10.4,10.4,64,0.00,OVC,,0.00,WeatherDisplay:10.37,2013-02-04 16:20:00,
2013-02-04 11:25:00,37.6,26.1,29.88,South,180,15.0,15.0,63,0.00,OVC,,0.00,WeatherDisplay:10.37,2013-02-04 16:25:00,
2013-02-04 11:30:00,38.1,26.6,29.88,SSW,202,13.8,13.8,63,0.00,OVC,,0.00,WeatherDisplay:10.37,2013-02-04 16:30:00,
2013-02-04 11:35:00,38.7,27.1,29.88,South,180,11.8,11.8,63,0.00,OVC,,0.00,WeatherDisplay:10.37,2013-02-04 16:35:00,
2013-02-04 11:40:00,39.2,27.7,29.88,South,180,12.5,12.5,63,0.00,OVC,,0.00,WeatherDisplay:10.37,2013-02-04 16:40:00,
2013-02-04 11:45:00,38.7,27.1,29.88,South,180,12.7,12.7,63,0.00,OVC,,0.00,WeatherDisplay:10.37,2013-02-04 16:45:00,
2013-02-04 11:50:00,39.2,27.7,29.85,South,180,11.5,11.5,63,0.00,OVC,,0.00,WeatherDisplay:10.37,2013-02-04 16:50:00,
2013-02-04 11:55:00,39.4,27.8,29.85,South,180,12.7,12.7,63,0.00,OVC,,0.00,WeatherDisplay:10.37,2013-02-04 16:55:00,
2013-02-04 12:00:00,39.6,28.0,29.85,South,180,11.5,11.5,63,0.00,OVC,,0.00,WeatherDisplay:10.37,2013-02-04 17:00:00,
2013-02-04 12:05:00,39.7,28.2,29.85,SW,225,9.2,9.2,63,0.00,OVC,,0.00,WeatherDisplay:10.37,2013-02-04 17:05:00,
2013-02-04 12:10:00,39.9,28.3,29.85,SW,225,6.9,6.9,63,0.00,OVC,,0.00,WeatherDisplay:10.37,2013-02-04 17:10:00,
2013-02-04 12:15:00,40.1,28.5,29.85,South,180,11.5,11.5,63,0.00,OVC,,0.00,WeatherDisplay:10.37,2013-02-04 17:15:00,
2013-02-04 12:20:00,40.5,28.8,29.82,SSW,202,8.1,8.1,63,0.00,OVC,,0.00,WeatherDisplay:10.37,2013-02-04 17:20:00,
2013-02-04 12:25:00,40.8,29.2,29.82,South,180,9.2,9.2,63,0.00,OVC,,0.00,WeatherDisplay:10.37,2013-02-04 17:25:00,
2013-02-04 12:30:00,41.2,29.5,29.82,South,180,12.1,12.1,63,0.00,OVC,,0.00,WeatherDisplay:10.37,2013-02-04 17:30:00,
2013-02-04 12:35:00,41.5,29.9,29.85,South,180,9.7,9.7,63,0.00,OVC,,0.00,WeatherDisplay:10.37,2013-02-04 17:35:00,
2013-02-04 12:40:00,42.4,30.7,29.85,SSW,202,12.7,12.7,63,0.00,OVC,,0.00,WeatherDisplay:10.37,2013-02-04 17:40:00,
2013-02-04 12:45:00,43.3,31.2,29.85,South,180,9.2,9.2,62,0.00,OVC,,0.00,WeatherDisplay:10.37,2013-02-04 17:45:00,
2013-02-04 12:50:00,44.6,32.4,29.82,SSW,202,11.5,11.5,62,0.00,OVC,,0.00,WeatherDisplay:10.37,2013-02-04 17:50:00,
2013-02-04 12:55:00,46.0,33.7,29.82,SSW,202,9.2,9.2,62,0.00,OVC,,0.00,WeatherDisplay:10.37,2013-02-04 17:55:00,
2013-02-04 13:00:00,46.2,33.9,29.82,South,180,15.0,15.0,62,0.00,OVC,,0.00,WeatherDisplay:10.37,2013-02-04 18:00:00,
2013-02-04 13:05:00,46.6,33.8,29.82,SW,225,15.0,15.0,61,0.00,OVC,,0.00,WeatherDisplay:10.37,2013-02-04 18:05:00,
2013-02-04 13:10:00,46.9,34.2,29.82,SW,225,10.4,10.4,61,0.00,OVC,,0.00,WeatherDisplay:10.37,2013-02-04 18:10:00,
2013-02-04 13:15:00,47.3,34.5,29.82,SSW,202,12.7,12.7,61,0.00,OVC,,0.00,WeatherDisplay:10.37,2013-02-04 18:15:00,
2013-02-04 13:20:00,47.7,34.9,29.82,SSW,202,11.5,11.5,61,0.00,OVC,,0.00,WeatherDisplay:10.37,2013-02-04 18:20:00,
2013-02-04 13:25:00,48.4,35.5,29.82,South,180,10.4,10.4,61,0.00,OVC,,0.00,WeatherDisplay:10.37,2013-02-04 18:25:00,
2013-02-04 13:30:00,48.2,35.4,29.82,SW,225,15.0,15.0,61,0.00,OVC,,0.00,WeatherDisplay:10.37,2013-02-04 18:30:00,
2013-02-04 13:35:00,48.6,35.7,29.79,SW,225,9.2,9.2,61,0.00,OVC,,0.00,WeatherDisplay:10.37,2013-02-04 18:35:00,
2013-02-04 13:40:00,48.6,35.7,29.79,SSW,202,13.8,13.8,61,0.00,OVC,,0.00,WeatherDisplay:10.37,2013-02-04 18:40:00,
2013-02-04 13:45:00,49.5,36.6,29.79,SW,225,19.6,19.6,61,0.00,OVC,,0.00,WeatherDisplay:10.37,2013-02-04 18:45:00,
2013-02-04 13:50:00,49.5,36.6,29.76,SW,225,15.0,15.0,61,0.00,OVC,,0.00,WeatherDisplay:10.37,2013-02-04 18:50:00,
2013-02-04 13:55:00,49.5,36.6,29.76,SSW,202,17.3,17.3,61,0.00,OVC,,0.00,WeatherDisplay:10.37,2013-02-04 18:55:00,
2013-02-04 14:00:00,50.2,37.2,29.76,SSW,202,10.4,10.4,61,0.00,OVC,,0.00,WeatherDisplay:10.37,2013-02-04 19:00:00,
2013-02-04 14:05:00,51.8,38.3,29.79,SSW,202,16.1,16.1,60,0.00,OVC,,0.00,WeatherDisplay:10.37,2013-02-04 19:05:00,
2013-02-04 14:10:00,52.7,39.2,29.79,West,270,15.0,15.0,60,0.00,OVC,,0.00,WeatherDisplay:10.37,2013-02-04 19:10:00,
2013-02-04 14:15:00,51.8,38.3,29.79,SSW,202,12.8,12.8,60,0.00,OVC,,0.00,WeatherDisplay:10.37,2013-02-04 19:15:00,
2013-02-04 14:20:00,51.3,38.3,29.79,West,270,12.1,12.1,61,0.00,OVC,,0.00,WeatherDisplay:10.37,2013-02-04 19:20:00,
2013-02-04 14:25:00,50.7,37.8,29.79,WSW,248,15.2,15.2,61,0.00,OVC,,0.00,WeatherDisplay:10.37,2013-02-04 19:25:00,
2013-02-04 14:30:00,50.5,37.6,29.79,SW,225,13.2,13.8,61,0.00,OVC,,0.00,WeatherDisplay:10.37,2013-02-04 19:30:00,
2013-02-04 14:35:00,50.2,37.2,29.79,West,270,21.9,21.9,61,0.00,OVC,,0.00,WeatherDisplay:10.37,2013-02-04 19:35:00,
2013-02-04 14:40:00,49.8,36.9,29.79,SW,225,13.8,13.8,61,0.00,OVC,,0.00,WeatherDisplay:10.37,2013-02-04 19:40:00,
2013-02-04 14:45:00,49.8,36.9,29.79,WSW,248,13.8,13.8,61,0.00,OVC,,0.00,WeatherDisplay:10.37,2013-02-04 19:45:00,
2013-02-04 14:50:00,49.8,36.9,29.79,SW,225,10.4,11.2,61,0.00,OVC,,0.00,WeatherDisplay:10.37,2013-02-04 19:50:00,
2013-02-04 14:55:00,49.6,36.7,29.79,WSW,248,12.3,12.3,61,0.00,OVC,,0.00,WeatherDisplay:10.37,2013-02-04 19:55:00,
2013-02-04 15:00:00,49.8,36.9,29.79,SSW,202,13.0,13.0,61,0.00,OVC,,0.00,WeatherDisplay:10.37,2013-02-04 20:00:00,
2013-02-04 15:05:00,49.6,36.7,29.79,SW,225,11.5,11.5,61,0.00,OVC,,0.00,WeatherDisplay:10.37,2013-02-04 20:05:00,
2013-02-04 15:10:00,49.5,36.6,29.79,SW,225,10.4,10.4,61,0.00,OVC,,0.00,WeatherDisplay:10.37,2013-02-04 20:10:00,
2013-02-04 15:15:00,49.3,36.4,29.79,SSW,202,12.7,12.7,61,0.00,OVC,,0.00,WeatherDisplay:10.37,2013-02-04 20:15:00,
2013-02-04 15:20:00,49.1,36.2,29.76,SW,225,12.7,12.7,61,0.00,BKN,,0.00,WeatherDisplay:10.37,2013-02-04 20:20:00,
2013-02-04 15:25:00,48.9,36.1,29.76,SW,225,8.1,8.1,61,0.00,BKN,,0.00,WeatherDisplay:10.37,2013-02-04 20:25:00,
2013-02-04 15:30:00,49.1,36.2,29.76,WSW,248,12.5,12.5,61,0.00,BKN,,0.00,WeatherDisplay:10.37,2013-02-04 20:30:00,
2013-02-04 15:35:00,49.1,36.2,29.76,SW,225,12.7,12.7,61,0.00,BKN,,0.00,WeatherDisplay:10.37,2013-02-04 20:35:00,
2013-02-04 15:40:00,49.3,36.4,29.76,SW,225,13.8,13.8,61,0.00,BKN,,0.00,WeatherDisplay:10.37,2013-02-04 20:40:00,
2013-02-04 15:45:00,49.3,36.4,29.76,SSW,202,13.8,13.8,61,0.00,BKN,,0.00,WeatherDisplay:10.37,2013-02-04 20:45:00,
2013-02-04 15:50:00,49.3,36.4,29.76,SW,225,15.0,15.0,61,0.00,BKN,,0.00,WeatherDisplay:10.37,2013-02-04 20:50:00,
2013-02-04 15:55:00,49.3,36.4,29.76,SW,225,13.0,13.0,61,0.00,BKN,,0.00,WeatherDisplay:10.37,2013-02-04 20:55:00,
2013-02-04 16:00:00,49.1,36.2,29.76,WSW,248,13.8,13.8,61,0.00,BKN,,0.00,WeatherDisplay:10.37,2013-02-04 21:00:00,
2013-02-04 16:05:00,48.9,36.1,29.76,SW,225,15.0,15.0,61,0.00,BKN,,0.00,WeatherDisplay:10.37,2013-02-04 21:05:00,
2013-02-04 16:10:00,48.7,35.9,29.76,SW,225,12.7,12.7,61,0.00,BKN,,0.00,WeatherDisplay:10.37,2013-02-04 21:10:00,
2013-02-04 16:15:00,48.9,36.1,29.76,SW,225,13.8,13.8,61,0.00,BKN,,0.00,WeatherDisplay:10.37,2013-02-04 21:15:00,
2013-02-04 16:20:00,49.1,36.2,29.79,SW,225,12.1,12.1,61,0.00,BKN,,0.00,WeatherDisplay:10.37,2013-02-04 21:20:00,
2013-02-04 16:25:00,49.1,36.2,29.79,SW,225,15.0,15.0,61,0.00,BKN,,0.00,WeatherDisplay:10.37,2013-02-04 21:25:00,
2013-02-04 16:30:00,48.9,36.1,29.79,SW,225,10.0,10.0,61,0.00,BKN,,0.00,WeatherDisplay:10.37,2013-02-04 21:30:00,
2013-02-04 16:35:00,48.9,36.1,29.76,SW,225,9.2,9.2,61,0.00,BKN,,0.00,WeatherDisplay:10.37,2013-02-04 21:35:00,
2013-02-04 16:40:00,48.7,35.9,29.76,WSW,248,11.4,11.4,61,0.00,BKN,,0.00,WeatherDisplay:10.37,2013-02-04 21:40:00,
2013-02-04 16:45:00,48.7,35.9,29.76,SW,225,12.7,12.7,61,0.00,BKN,,0.00,WeatherDisplay:10.37,2013-02-04 21:45:00,
2013-02-04 16:50:00,48.4,35.5,29.76,SW,225,10.4,10.4,61,0.00,BKN,,0.00,WeatherDisplay:10.37,2013-02-04 21:50:00,
2013-02-04 16:55:00,48.2,35.4,29.76,SW,225,12.7,12.7,61,0.00,BKN,,0.00,WeatherDisplay:10.37,2013-02-04 21:55:00,
2013-02-04 17:00:00,48.0,35.2,29.76,South,180,12.7,12.7,61,0.00,BKN,,0.00,WeatherDisplay:10.37,2013-02-04 22:00:00,
2013-02-04 17:05:00,47.7,34.9,29.76,SW,225,10.5,10.5,61,0.00,BKN,,0.00,WeatherDisplay:10.37,2013-02-04 22:05:00,
2013-02-04 17:10:00,47.7,34.9,29.76,WSW,248,12.7,12.7,61,0.00,BKN,,0.00,WeatherDisplay:10.37,2013-02-04 22:10:00,
2013-02-04 17:15:00,47.3,34.5,29.76,WSW,248,12.5,12.5,61,0.00,BKN,,0.00,WeatherDisplay:10.37,2013-02-04 22:15:00,
2013-02-04 17:20:00,47.3,34.5,29.76,SW,225,15.0,15.0,61,0.00,-RA,,0.00,WeatherDisplay:10.37,2013-02-04 22:20:00,
2013-02-04 17:25:00,46.8,34.0,29.76,SW,225,10.9,10.9,61,0.00,-RA,,0.00,WeatherDisplay:10.37,2013-02-04 22:25:00,
2013-02-04 17:30:00,46.2,33.9,29.76,SW,225,11.5,11.5,62,0.00,-RA,,0.00,WeatherDisplay:10.37,2013-02-04 22:30:00,
2013-02-04 17:35:00,46.2,33.9,29.76,West,270,15.0,15.0,62,0.00,-RA,,0.00,WeatherDisplay:10.37,2013-02-04 22:35:00,
2013-02-04 17:40:00,45.7,34.2,29.76,WSW,248,12.7,12.7,64,0.00,-RA,,0.00,WeatherDisplay:10.37,2013-02-04 22:40:00,
2013-02-04 17:45:00,45.9,34.4,29.76,West,270,15.0,15.0,64,0.00,-RA,,0.00,WeatherDisplay:10.37,2013-02-04 22:45:00,
2013-02-04 17:50:00,45.7,35.3,29.79,WSW,248,15.0,15.0,67,0.00,-RA,,0.00,WeatherDisplay:10.37,2013-02-04 22:50:00,
2013-02-04 17:55:00,45.3,35.7,29.79,WSW,248,10.4,10.4,69,0.00,-RA,,0.00,WeatherDisplay:10.37,2013-02-04 22:55:00,
2013-02-04 18:00:00,45.5,35.9,29.79,SW,225,12.7,12.7,69,0.00,-RA,,0.00,WeatherDisplay:10.37,2013-02-04 23:00:00,
2013-02-04 18:05:00,45.0,35.8,29.79,WSW,248,10.9,10.9,70,0.00,-RA,,0.00,WeatherDisplay:10.37,2013-02-04 23:05:00,
2013-02-04 18:10:00,44.8,35.9,29.79,West,270,12.7,12.7,71,0.00,-RA,,0.00,WeatherDisplay:10.37,2013-02-04 23:10:00,
2013-02-04 18:15:00,44.2,36.5,29.79,WSW,248,8.1,8.1,74,0.00,-RA,,0.00,WeatherDisplay:10.37,2013-02-04 23:15:00,
2013-02-04 18:18:00,41.9,25.1,29.79,WSW,244,6.0,6.0,51,0.00,RA,RA,0.13,WeatherDisplay:10.37,2013-02-04 23:18:00,
2013-02-04 18:20:00,44.1,37.6,29.79,WSW,248,9.2,9.2,78,0.00,-RA,,0.00,WeatherDisplay:10.37,2013-02-04 23:20:00,
2013-02-04 18:25:00,43.7,37.6,29.79,SW,225,11.5,11.5,79,0.00,-RA,,0.00,WeatherDisplay:10.37,2013-02-04 23:25:00,
2013-02-04 18:30:00,43.5,38.1,29.79,WSW,248,9.2,9.2,81,0.04,-RA,,0.04,WeatherDisplay:10.37,2013-02-04 23:30:00,
2013-02-04 18:33:00,41.5,24.7,29.79,WSW,245,3.0,6.0,51,0.00,CLR,CLR,0.13,WeatherDisplay:10.37,2013-02-04 23:33:00,
2013-02-04 18:35:00,43.3,38.2,29.79,WSW,248,9.2,9.2,82,0.04,-RA,,0.04,WeatherDisplay:10.37,2013-02-04 23:35:00,
2013-02-04 18:40:00,43.2,38.3,29.79,WSW,248,9.8,9.8,83,0.04,-RA,,0.04,WeatherDisplay:10.37,2013-02-04 23:40:00,
2013-02-04 18:45:00,43.0,38.8,29.79,SW,225,8.1,8.1,85,0.04,-RA,,0.04,WeatherDisplay:10.37,2013-02-04 23:45:00,
2013-02-04 18:48:00,41.5,24.3,29.79,WSW,246,6.0,8.0,50,0.00,CLR,CLR,0.13,WeatherDisplay:10.37,2013-02-04 23:48:00,
2013-02-04 18:50:00,43.0,39.1,29.79,WSW,248,9.2,9.2,86,0.04,-RA,,0.04,WeatherDisplay:10.37,2013-02-04 23:50:00,
2013-02-04 18:55:00,43.0,39.1,29.79,WSW,248,10.4,10.4,86,0.04,-RA,,0.04,WeatherDisplay:10.37,2013-02-04 23:55:00,
2013-02-04 19:00:00,42.8,39.5,29.79,SW,225,11.5,11.5,88,0.04,-RA,,0.04,WeatherDisplay:10.37,2013-02-05 00:00:00,
2013-02-04 19:03:00,41.7,23.9,29.79,WSW,241,5.0,6.0,49,0.13,CLR,CLR,0.13,WeatherDisplay:10.37,2013-02-05 00:03:00,
2013-02-04 19:05:00,43.0,39.7,29.79,SW,225,8.1,8.1,88,0.08,-RA,,0.08,WeatherDisplay:10.37,2013-02-05 00:05:00,
2013-02-04 19:10:00,42.8,40.1,29.79,WSW,248,10.4,10.4,90,0.08,-RA,,0.08,WeatherDisplay:10.37,2013-02-05 00:10:00,
2013-02-04 19:15:00,42.8,40.4,29.79,SSW,202,9.2,9.2,91,0.08,-RA,,0.08,WeatherDisplay:10.37,2013-02-05 00:15:00,
2013-02-04 19:18:00,41.5,24.3,29.79,WSW,241,3.0,6.0,50,0.00,CLR,CLR,0.13,WeatherDisplay:10.37,2013-02-05 00:18:00,
2013-02-04 19:20:00,42.8,40.4,29.76,SW,225,10.4,10.4,91,0.08,OVC,,0.08,WeatherDisplay:10.37,2013-02-05 00:20:00,
2013-02-04 19:25:00,42.8,40.6,29.76,SW,225,9.2,9.2,92,0.08,OVC,,0.08,WeatherDisplay:10.37,2013-02-05 00:25:00,
2013-02-04 19:30:00,43.0,40.8,29.76,SW,225,5.8,6.0,92,0.04,OVC,,0.08,WeatherDisplay:10.37,2013-02-05 00:30:00,
2013-02-04 19:33:00,41.4,24.1,29.79,SW,225,2.0,4.0,50,0.00,CLR,CLR,0.13,WeatherDisplay:10.37,2013-02-05 00:33:00,
2013-02-04 19:35:00,42.8,40.6,29.76,SW,225,8.1,8.1,92,0.09,RA,,0.13,WeatherDisplay:10.37,2013-02-05 00:35:00,
2013-02-04 19:40:00,42.6,41.0,29.76,SW,225,10.0,10.0,94,0.09,RA,,0.13,WeatherDisplay:10.37,2013-02-05 00:40:00,
2013-02-04 19:45:00,42.6,41.0,29.76,WSW,248,6.2,6.2,94,0.09,OVC,,0.13,WeatherDisplay:10.37,2013-02-05 00:45:00,
2013-02-04 19:48:00,41.4,25.5,29.79,SW,230,3.0,5.0,53,0.00,CLR,CLR,0.13,WeatherDisplay:10.37,2013-02-05 00:48:00,
2013-02-04 19:50:00,42.8,41.2,29.79,WSW,248,9.2,9.2,94,0.09,OVC,,0.13,WeatherDisplay:10.37,2013-02-05 00:50:00,
2013-02-04 19:55:00,42.8,41.2,29.79,SSW,202,11.5,11.5,94,0.09,OVC,,0.13,WeatherDisplay:10.37,2013-02-05 00:55:00,
2013-02-04 20:00:00,42.8,41.2,29.79,WSW,248,9.0,9.0,94,0.09,OVC,,0.13,WeatherDisplay:10.37,2013-02-05 01:00:00,
2013-02-04 20:03:00,41.5,24.7,29.79,WSW,246,5.0,5.0,51,0.00,CLR,CLR,0.13,WeatherDisplay:10.37,2013-02-05 01:03:00,
2013-02-04 20:05:00,42.8,41.2,29.79,WSW,248,9.2,9.2,94,0.05,OVC,,0.13,WeatherDisplay:10.37,2013-02-05 01:05:00,
2013-02-04 20:10:00,43.0,41.1,29.79,SW,225,9.2,9.2,93,0.05,OVC,,0.13,WeatherDisplay:10.37,2013-02-05 01:10:00,
2013-02-04 20:15:00,43.0,41.1,29.79,SW,225,9.2,9.2,93,0.05,OVC,,0.13,WeatherDisplay:10.37,2013-02-05 01:15:00,
2013-02-04 20:18:00,42.1,20.6,29.79,WSW,252,5.0,8.0,42,0.00,CLR,CLR,0.13,WeatherDisplay:10.37,2013-02-05 01:18:00,
2013-02-04 20:20:00,43.0,41.1,29.79,SW,225,9.2,9.2,93,0.05,OVC,,0.13,WeatherDisplay:10.37,2013-02-05 01:20:00,
2013-02-04 20:25:00,43.0,40.8,29.79,WSW,248,13.8,13.8,92,0.05,OVC,,0.13,WeatherDisplay:10.37,2013-02-05 01:25:00,
2013-02-04 20:30:00,43.3,40.3,29.79,WSW,248,12.7,12.7,89,0.05,OVC,,0.13,WeatherDisplay:10.37,2013-02-05 01:30:00,
2013-02-04 20:33:00,42.1,20.0,29.79,WSW,254,7.0,8.0,41,0.00,CLR,CLR,0.13,WeatherDisplay:10.37,2013-02-05 01:33:00,
2013-02-04 20:35:00,43.3,40.0,29.79,SW,225,11.5,11.5,88,0.00,OVC,,0.13,WeatherDisplay:10.37,2013-02-05 01:35:00,
2013-02-04 20:40:00,43.3,39.7,29.79,SW,225,15.4,15.4,87,0.00,OVC,,0.13,WeatherDisplay:10.37,2013-02-05 01:40:00,
2013-02-04 20:45:00,43.5,39.9,29.79,SW,225,11.5,11.5,87,0.00,OVC,,0.13,WeatherDisplay:10.37,2013-02-05 01:45:00,
2013-02-04 20:48:00,42.1,19.5,29.79,West,262,7.0,8.0,40,0.00,CLR,CLR,0.13,WeatherDisplay:10.37,2013-02-05 01:48:00,
2013-02-04 20:50:00,43.5,39.6,29.79,WSW,248,9.7,9.7,86,0.00,OVC,,0.13,WeatherDisplay:10.37,2013-02-05 01:50:00,
2013-02-04 20:55:00,43.5,39.6,29.79,SW,225,10.5,10.5,86,0.00,OVC,,0.13,WeatherDisplay:10.37,2013-02-05 01:55:00,
2013-02-04 21:00:00,43.7,39.8,29.79,WSW,248,11.5,11.5,86,0.00,OVC,,0.13,WeatherDisplay:10.37,2013-02-05 02:00:00,
2013-02-04 21:03:00,41.7,19.1,29.79,West,270,6.0,8.0,40,0.00,CLR,CLR,0.13,WeatherDisplay:10.37,2013-02-05 02:03:00,
2013-02-04 21:05:00,43.7,39.8,29.79,WSW,248,11.5,11.5,86,0.00,OVC,,0.13,WeatherDisplay:10.37,2013-02-05 02:05:00,
2013-02-04 21:10:00,43.7,39.5,29.79,WSW,248,9.2,9.2,85,0.00,OVC,,0.13,WeatherDisplay:10.37,2013-02-05 02:10:00,
2013-02-04 21:15:00,43.7,39.2,29.79,WSW,248,9.2,9.2,84,0.00,OVC,,0.13,WeatherDisplay:10.37,2013-02-05 02:15:00,
2013-02-04 21:18:00,41.9,18.7,29.79,West,260,6.0,13.0,39,0.00,CLR,CLR,0.13,WeatherDisplay:10.37,2013-02-05 02:18:00,
2013-02-04 21:20:00,43.7,38.9,29.79,WSW,248,13.8,13.8,83,0.00,OVC,,0.13,WeatherDisplay:10.37,2013-02-05 02:20:00,
2013-02-04 21:25:00,43.9,38.7,29.79,SW,225,12.7,12.7,82,0.00,OVC,,0.13,WeatherDisplay:10.37,2013-02-05 02:25:00,
2013-02-04 21:30:00,43.9,38.7,29.79,West,270,12.7,12.7,82,0.00,OVC,,0.13,WeatherDisplay:10.37,2013-02-05 02:30:00,
2013-02-04 21:33:00,41.7,19.1,29.79,West,259,7.0,8.0,40,0.00,CLR,CLR,0.13,WeatherDisplay:10.37,2013-02-05 02:33:00,
2013-02-04 21:35:00,43.7,38.6,29.79,West,270,10.4,10.4,82,0.00,OVC,,0.13,WeatherDisplay:10.37,2013-02-05 02:35:00,
2013-02-04 21:40:00,43.7,38.6,29.79,SW,225,10.4,10.4,82,0.00,OVC,,0.13,WeatherDisplay:10.37,2013-02-05 02:40:00,
2013-02-04 21:48:00,41.5,19.6,29.79,West,270,8.0,11.0,41,0.00,CLR,CLR,0.13,WeatherDisplay:10.37,2013-02-05 02:48:00,
2013-02-04 21:49:00,43.5,37.8,29.79,West,270,15.0,15.0,80,0.00,OVC,,0.13,WeatherDisplay:10.37,2013-02-05 02:49:00,
2013-02-04 21:54:00,43.5,37.8,29.79,West,270,11.5,11.5,80,0.00,OVC,,0.13,WeatherDisplay:10.37,2013-02-05 02:54:00,
2013-02-04 21:59:00,43.3,37.9,29.79,West,270,10.4,10.4,81,0.00,OVC,,0.13,WeatherDisplay:10.37,2013-02-05 02:59:00,
2013-02-04 22:00:00,42.3,38.7,29.96,North,2,0.0,0.0,87,0.00,CL,CL,0.00,WeatherDisplay:10.37,2013-02-05 03:00:00,
2013-02-04 22:03:00,41.2,21.4,29.79,West,268,6.0,10.0,45,0.00,CLR,CLR,0.13,WeatherDisplay:10.37,2013-02-05 03:03:00,
2013-02-04 22:04:00,43.2,37.7,29.82,WSW,248,9.2,9.2,81,0.00,OVC,,0.13,WeatherDisplay:10.37,2013-02-05 03:04:00,
2013-02-04 22:09:00,42.8,37.4,29.82,West,270,7.4,7.4,81,0.00,OVC,,0.13,WeatherDisplay:10.37,2013-02-05 03:09:00,
2013-02-04 22:14:00,42.8,37.7,29.82,West,270,10.4,10.4,82,0.00,OVC,,0.13,WeatherDisplay:10.37,2013-02-05 03:14:00,
2013-02-04 22:18:00,40.8,23.6,29.76,West,266,6.0,11.0,50,0.00,CLR,CLR,0.13,WeatherDisplay:10.37,2013-02-05 03:18:00,
2013-02-04 22:19:00,42.8,38.0,29.82,West,270,6.9,6.9,83,0.00,OVC,,0.13,WeatherDisplay:10.37,2013-02-05 03:19:00,
2013-02-04 22:24:00,42.6,37.8,29.82,West,270,8.1,8.1,83,0.00,OVC,,0.13,WeatherDisplay:10.37,2013-02-05 03:24:00,
2013-02-04 22:29:00,42.4,37.9,29.82,WSW,248,8.1,8.1,84,0.00,OVC,,0.13,WeatherDisplay:10.37,2013-02-05 03:29:00,
2013-02-04 22:33:00,40.6,24.8,29.76,West,263,6.0,8.0,53,0.00,CLR,CLR,0.13,WeatherDisplay:10.37,2013-02-05 03:33:00,
2013-02-04 22:34:00,42.6,38.1,29.79,WSW,248,6.9,6.9,84,0.00,OVC,,0.13,WeatherDisplay:10.37,2013-02-05 03:34:00,
2013-02-04 22:39:00,42.4,38.2,29.79,WSW,248,8.1,8.1,85,0.00,OVC,,0.13,WeatherDisplay:10.37,2013-02-05 03:39:00,
2013-02-04 22:44:00,42.3,38.4,29.79,WSW,248,5.8,5.8,86,0.00,OVC,,0.13,WeatherDisplay:10.37,2013-02-05 03:44:00,
2013-02-04 22:48:00,40.5,26.4,29.76,West,266,6.0,11.0,57,0.00,CLR,CLR,0.13,WeatherDisplay:10.37,2013-02-05 03:48:00,
2013-02-04 22:49:00,42.3,38.4,29.79,WSW,248,4.6,4.6,86,0.00,OVC,,0.13,WeatherDisplay:10.37,2013-02-05 03:49:00,
2013-02-04 22:54:00,42.3,38.4,29.79,West,270,5.8,5.8,86,0.00,OVC,,0.13,WeatherDisplay:10.37,2013-02-05 03:54:00,
2013-02-04 22:59:00,42.3,38.7,29.79,WSW,248,6.9,6.9,87,0.00,OVC,,0.13,WeatherDisplay:10.37,2013-02-05 03:59:00,
2013-02-04 23:00:00,41.7,38.4,29.96,NNE,14,0.0,0.0,88,0.00,CL,CL,0.00,WeatherDisplay:10.37,2013-02-05 04:00:00,
2013-02-04 23:03:00,40.3,28.7,29.79,WSW,255,6.0,7.0,63,0.00,CLR,CLR,0.13,WeatherDisplay:10.37,2013-02-05 04:03:00,
2013-02-04 23:04:00,42.3,38.7,29.79,SW,225,4.6,4.6,87,0.00,RA,,0.00,WeatherDisplay:10.37,2013-02-05 04:04:00,
2013-02-04 23:09:00,41.9,38.6,29.79,WSW,248,5.9,5.9,88,0.00,RA,,0.00,WeatherDisplay:10.37,2013-02-05 04:09:00,
2013-02-04 23:18:00,40.1,31.8,29.79,WSW,246,3.0,6.0,72,0.00,CLR,CLR,0.13,WeatherDisplay:10.37,2013-02-05 04:18:00,
2013-02-04 23:33:00,39.9,33.0,29.79,WSW,243,8.0,9.0,76,0.00,CLR,CLR,0.13,WeatherDisplay:10.37,2013-02-05 04:33:00,
2013-02-04 23:48:00,39.9,31.6,29.79,West,268,6.0,8.0,72,0.00,CLR,CLR,0.13,WeatherDisplay:10.37,2013-02-05 04:48:00,